Grand Junction, CO

2:10 AM MDT on October 17, 2017 (GMT -0600)
Walker

Weather History for KGJT - October, 2011

Change the Weather History Date:

Monday, October 17, 2011

  Actual Average Record
Temperature  
Mean Temperature 55 °F 53 °F  
Max Temperature 67 °F 66 °F 81 °F (1977)
Min Temperature 43 °F 40 °F 24 °F (1996)
Degree Days  
Heating Degree Days 10 12  
Month to date heating degree days 145 156  
Since 1 July heating degree days 155 230  
Cooling Degree Days 0 0  
Month to date cooling degree days 10 1  
Year to date cooling degree days 1222 1123  
Growing Degree Days 8 (Base 50)    
Moisture  
Dew Point 31 °F    
Average Humidity 50    
Maximum Humidity 77    
Minimum Humidity 22    
Precipitation  
Precipitation 0.02 in 0.04 in 1.31 in (1908)
Month to date precipitation 0.39 0.62  
Year to date precipitation 8.28 7.66  
Snow  
Snow 0.00 in 0.00 in 0.40 in (2015)
Month to date snowfall 0.0 0.1  
Since 1 July snowfall 0.0 0.1  
Since 1 September snowfall 0.0 0.1  
Snow Depth 0.00 in    
Sea Level Pressure  
Sea Level Pressure 30.03 in    
Wind  
Wind Speed 9 mph (NNW)    
Max Wind Speed 25 mph    
Max Gust Speed 35 mph    
Visibility 10 miles    
Events Rain    
T = Trace of Precipitation, MM = Missing Value Source: NWS Daily Summary

Daily Weather History Graph

Daily Weather History Graph

Search for Another Location

Airport or City:

Trip Planner

Search our weather history database for the weather conditions in past years. The results will help you decide how hot, cold, wet, or windy it might be!

Date:

Astronomy

Oct. 17, 2011 Rise Set
Actual Time 7:25 AM MDT 6:32 PM MDT
Civil Twilight 6:58 AM MDT 6:59 PM MDT
Nautical Twilight 6:27 AM MDT 7:30 PM MDT
Astronomical Twilight 5:56 AM MDT 8:01 PM MDT
Moon 10:18 PM MDT 12:32 PM MDT
Length of Visible Light 12h 01m
Length of Day
11h 07m
Waning Gibbous, 73% of the Moon is Illuminated
Oct 17
Waning Gibbous
Oct 19
Last Quarter
Oct 26
New
Nov 2
First Quarter
Nov 10
Full

Hourly Weather History & Observations

Time (MDT) Temp. Dew Point Humidity Pressure Visibility Wind Dir Wind Speed Gust Speed Precip Events Conditions
12:53 AM 63.0 °F 24.1 °F 23% 29.77 in 10.0 mi ENE 5.8 mph - N/A   Partly Cloudy
1:53 AM 60.1 °F 24.1 °F 25% 29.77 in 10.0 mi Calm Calm - N/A   Clear
2:53 AM 55.9 °F 26.1 °F 32% 29.80 in 10.0 mi Calm Calm - N/A   Scattered Clouds
3:53 AM 62.6 °F 26.6 °F 26% 29.96 in 10.0 mi North 9.2 mph - N/A   Clear
4:20 AM 60.8 °F 33.8 °F 36% 30.00 in 10.0 mi WNW 25.3 mph 32.2 mph 0.00 in Rain Light Rain
4:53 AM 61.0 °F 36.0 °F 39% 29.85 in 10.0 mi NW 17.3 mph - 0.00 in   Overcast
5:32 AM 53.6 °F 44.6 °F 72% 30.05 in 10.0 mi WSW 13.8 mph - 0.02 in Rain Light Rain
5:53 AM 53.1 °F 46.0 °F 77% 29.90 in 10.0 mi West 6.9 mph - 0.02 in   Overcast
6:53 AM 51.1 °F 43.0 °F 74% 29.96 in 10.0 mi NNW 3.5 mph - N/A   Partly Cloudy
7:53 AM 55.0 °F 36.0 °F 49% 29.99 in 10.0 mi NNW 20.7 mph - N/A   Partly Cloudy
8:53 AM 55.9 °F 37.9 °F 51% 30.05 in 10.0 mi NW 13.8 mph - N/A   Partly Cloudy
9:53 AM 59.0 °F 37.0 °F 44% 30.07 in 10.0 mi WNW 15.0 mph - N/A   Scattered Clouds
10:53 AM 60.1 °F 34.0 °F 38% 30.09 in 10.0 mi NW 9.2 mph 19.6 mph N/A   Scattered Clouds
11:53 AM 64.0 °F 28.0 °F 26% 30.09 in 10.0 mi NNW 23.0 mph 28.8 mph N/A   Scattered Clouds
12:53 PM 63.0 °F 26.1 °F 25% 30.09 in 10.0 mi Variable 4.6 mph 20.7 mph N/A   Scattered Clouds
1:53 PM 66.0 °F 26.1 °F 22% 30.09 in 10.0 mi WNW 9.2 mph - N/A   Scattered Clouds
2:53 PM 66.0 °F 27.0 °F 23% 30.09 in 10.0 mi Calm Calm - N/A   Partly Cloudy
3:53 PM 66.0 °F 26.1 °F 22% 30.08 in 10.0 mi NW 5.8 mph - N/A   Partly Cloudy
4:53 PM 66.0 °F 26.1 °F 22% 30.07 in 10.0 mi North 4.6 mph - N/A   Clear
5:53 PM 64.0 °F 27.0 °F 25% 30.10 in 10.0 mi NE 6.9 mph - N/A   Clear
6:53 PM 59.0 °F 26.1 °F 28% 30.14 in 10.0 mi NE 12.7 mph - N/A   Clear
7:53 PM 57.0 °F 26.1 °F 30% 30.15 in 10.0 mi ENE 11.5 mph - N/A   Clear
8:53 PM 55.9 °F 26.1 °F 32% 30.15 in 10.0 mi NE 13.8 mph - N/A   Clear
9:53 PM 55.0 °F 26.1 °F 33% 30.17 in 10.0 mi NE 10.4 mph - N/A   Clear
10:53 PM 55.0 °F 26.1 °F 33% 30.17 in 10.0 mi Calm Calm - N/A   Clear
11:53 PM 51.1 °F 27.0 °F 39% 30.17 in 10.0 mi South 4.6 mph - N/A   Clear